Regional Weather Roundup
Issued by NWS

Home | Current Version | Previous Version | Graphics & Text | Print | Product List | Glossary On
Versions: 1 2 3 4 5 6 7 8 9 10 11 12 13 14 15 16 17 18 19 20 21 22 23 24 25 26 27 28 29 30 31 32 33 34 35 36 37 38 39 40 41 42 43 44 45 46 47 48 49 50
000
ASUS45 KABQ 200001
RWRNM
WEATHER ROUNDUP FOR NEW MEXICO
NATIONAL WEATHER SERVICE ALBUQUERQUE NM
600 PM MDT TUE AUG 19 2014

NOTE: "FAIR" MEANS FEW OR NO CLOUDS BELOW 12,000 FEET AGL WITH NO
       SIGNIFICANT WEATHER OR OBSTRUCTIONS TO VISION.

      THIS PRODUCT IS RELEASED AS TWO VERSIONS.  ONE VERSION NEAR
      THE TOP OF THE HOUR CONTAINING PRELIMINARY DATA FROM ALBUQUERQUE
      AND OTHER STATIONS.  A FINAL VERSION WITH ADDITIONAL DATA IS
      ISSUED ABOUT 10 MINUTES AFTER THE HOUR.

NMZ501-503-504-510>518-200100-
NORTHWEST PLATEAU/NORTHCENTRAL MOUNTAINS

CITY           SKY/WX    TMP DP  RH WIND       PRES   REMARKS
FARMINGTON     CLOUDY    72  52  49 W16       29.98R
6HR MIN TEMP:  72; 6HR MAX TEMP:  86;

LOS ALAMOS     PTSUNNY   78  38  24 S12       30.08F
SANTA FE       PTSUNNY   83  40  21 SW12      30.00F
6HR MIN TEMP:  80; 6HR MAX TEMP:  87;

TAOS           CLOUDY    73  45  35 SE16      30.09R
ANGEL FIRE     LGT RAIN  64  44  47 SW20G28   30.22R

$$
NMZ402-403-502-505>509-200100-
WESTCENTRAL MOUNTAINS/SOUTHWEST MOUNTAINS

CITY           SKY/WX    TMP DP  RH WIND       PRES   REMARKS
GALLUP         CLOUDY    70  52  52 S18G26    30.08S
6HR MIN TEMP:  62; 6HR MAX TEMP:  73; 6HR PCP:  0.04;

SILVER CITY    CLOUDY    70  57  64 MISG      30.07R

$$
NMZ407-409-411-412-200100-
SOUTHERN DESERTS

CITY           SKY/WX    TMP DP  RH WIND       PRES   REMARKS
LORDSBURG      CLOUDY    68  63  83 NW8       30.03R
DEMING         LGT RAIN  71  62  73 W17G24    29.99R
6HR MIN TEMP:  70; 6HR MAX TEMP:  89; 6HR PCP: TRACE;

LAS CRUCES     CLOUDY    75  60  60 W22G35    29.98R
HOLLOMAN AFB   MOSUNNY   93  48  21 S15G21    29.84F
ALAMOGORDO     MOSUNNY   91  46  21 SW10      29.87S
T OR C         CLOUDY    76  56  49 W23       29.94R
6HR MIN TEMP:  76; 6HR MAX TEMP:  88; 6HR PCP: TRACE;


$$
NMZ519>523-200100-
CENTRAL VALLEYS/CENTRAL HIGHLANDS

CITY           SKY/WX    TMP DP  RH WIND       PRES   REMARKS
ALBUQUERQUE    PTSUNNY   86  41  20 SW13      29.95S
6HR MIN TEMP:  81; 6HR MAX TEMP:  90;

DOUBLE EAGLE   PTSUNNY   82  45  26 W13G18    29.99S
CLINES CORNERS MOSUNNY   77  45  32 SE9       30.07S
6HR MIN TEMP:  77; 6HR MAX TEMP:  81;

BELEN          FAIR      85  44  23 SW9       29.93S
6HR MIN TEMP:  81; 6HR MAX TEMP:  88;

SOCORRO        FAIR      87  44  22 SW12      29.91S
6HR MIN TEMP:  85; 6HR MAX TEMP:  92;


$$
NMZ524>526-539-540-200100-
SOUTHCENTRAL MOUNTAINS

CITY           SKY/WX    TMP DP  RH WIND       PRES   REMARKS
RUIDOSO        NOT AVBL

$$
NMZ527>531-200100-
NORTHEAST HIGHLANDS/NORTHEAST PLAINS

CITY           SKY/WX    TMP DP  RH WIND       PRES   REMARKS
LAS VEGAS      PTSUNNY   77  43  29 SW14      30.06S
6HR MIN TEMP:  77; 6HR MAX TEMP:  83;

RATON          PTSUNNY   78  44  29 W5        30.00F
6HR MIN TEMP:  72; 6HR MAX TEMP:  87; 6HR PCP: TRACE;

CLAYTON        MOSUNNY   90  43  19 SE20      29.91F
6HR MIN TEMP:  88; 6HR MAX TEMP:  94;


$$
NMZ532>537-200100-
EASTCENTRAL PLAINS

CITY           SKY/WX    TMP DP  RH WIND       PRES   REMARKS
TUCUMCARI      MOSUNNY   95  47  19 S8        29.83S
6HR MIN TEMP:  90; 6HR MAX TEMP:  98;

CANNON AFB     NOT AVBL
CLOVIS AIRPORT   N/A     90  55  31 SE15      29.91S

$$
NMZ028-029-538-200100-
SOUTHEAST PLAINS

CITY           SKY/WX    TMP DP  RH WIND       PRES   REMARKS
ROSWELL        SUNNY     94  47  20 E7        29.82F
6HR MIN TEMP:  86; 6HR MAX TEMP:  96;

ARTESIA        MOSUNNY   93  50  22 SE8G17    29.81S
CARLSBAD       PTSUNNY   96  51  21 SE16G24   29.79S
6HR MIN TEMP:  89; 6HR MAX TEMP:  98;

HOBBS          MOSUNNY   90  52  27 E13G21    29.85F


$$



USA.gov is the U.S. government's official web portal to all federal, state and local government web resources and services.